Newberry, MI

12:07 PM EDT on July 23, 2017 (GMT -0400)
Luce County

Weather History for KERY - February, 2013

Change the Weather History Date:

Wednesday, February 6, 2013

  Actual Average Record
Temperature  
Mean Temperature 10 °F -  
Max Temperature 19 °F 23 °F 42 °F (1946)
Min Temperature 0 °F 4 °F -18 °F (1936)
Degree Days  
Heating Degree Days 56    
Moisture  
Dew Point 7 °F    
Average Humidity 82    
Maximum Humidity 93    
Minimum Humidity 63    
Precipitation  
Precipitation 0.00 in - - ()
Sea Level Pressure  
Sea Level Pressure 30.13 in    
Wind  
Wind Speed 3 mph (SW)    
Max Wind Speed 12 mph    
Max Gust Speed -    
Visibility 6 miles    
Events Snow    
Averages and records for this station are not official NWS values.
T = Trace of Precipitation, MM = Missing Value Source: NWS Daily Summary

Daily Weather History Graph

Daily Weather History Graph

Search for Another Location

Airport or City:

Trip Planner

Search our weather history database for the weather conditions in past years. The results will help you decide how hot, cold, wet, or windy it might be!

Date:

Astronomy

Feb. 06, 2013 Rise Set
Actual Time 7:58 AM EST 5:54 PM EST
Civil Twilight 7:26 AM EST 6:26 PM EST
Nautical Twilight 6:50 AM EST 7:01 PM EST
Astronomical Twilight 6:15 AM EST 7:36 PM EST
Moon 4:47 AM EST (2/6) 2:05 PM EST (2/6)
Length of Visible Light 10h 59m
Length of Day
9h 56m
Waning Crescent, 17% of the Moon is Illuminated
Feb 6
Waning Crescent
Feb 10
New
Feb 17
First Quarter
Feb 25
Full
Mar 4
Last Quarter

Hourly Weather History & Observations

Time (EST) Temp. Windchill Dew Point Humidity Pressure Visibility Wind Dir Wind Speed Gust Speed Precip Events Conditions
12:15 AM 12.2 °F 2.9 °F 8.6 °F 85% 29.96 in 2.5 mi West 5.8 mph - N/A Snow Light Snow
12:35 AM 12.2 °F 4.3 °F 8.6 °F 85% 29.98 in 2.5 mi West 4.6 mph - N/A Snow Light Snow
12:54 AM 12.2 °F 4.3 °F 10.4 °F 92% 29.99 in 2.0 mi West 4.6 mph - N/A Snow Light Snow
1:15 AM 12.2 °F 4.3 °F 10.4 °F 92% 29.99 in 1.0 mi WSW 4.6 mph - N/A Snow Snow
1:35 AM 12.2 °F 2.9 °F 10.4 °F 92% 29.99 in 2.5 mi WNW 5.8 mph - N/A Snow Light Snow
2:15 AM 8.6 °F 2.0 °F 5.0 °F 85% 30.01 in 7.0 mi West 3.5 mph - N/A Snow Light Snow
2:34 AM 8.6 °F 2.0 °F 6.8 °F 92% 30.02 in 5.0 mi West 3.5 mph - N/A Snow Light Snow
3:15 AM 3.2 °F - -0.4 °F 85% 30.03 in 7.0 mi Calm Calm - N/A   Mostly Cloudy
3:34 AM -0.4 °F -10.4 °F -4.0 °F 85% 30.04 in 10.0 mi WSW 4.6 mph - N/A   Scattered Clouds
3:54 AM 1.4 °F -6.2 °F -2.2 °F 85% 30.04 in 10.0 mi WSW 3.5 mph - N/A   Scattered Clouds
4:15 AM 1.4 °F -6.2 °F -0.4 °F 92% 30.04 in 10.0 mi WSW 3.5 mph - N/A Snow Light Snow
4:34 AM 1.4 °F -8.3 °F -0.4 °F 92% 30.05 in 10.0 mi WSW 4.6 mph - N/A   Scattered Clouds
4:55 AM 1.4 °F -6.2 °F -2.2 °F 85% 30.05 in 7.0 mi West 3.5 mph - N/A Snow Light Snow
5:15 AM 1.4 °F - -2.2 °F 85% 30.06 in 7.0 mi Calm Calm - N/A Snow Light Snow
5:34 AM 1.4 °F - -0.4 °F 92% 30.06 in 7.0 mi Calm Calm - N/A Snow Light Snow
5:55 AM 1.4 °F - -2.2 °F 85% 30.06 in 10.0 mi Calm Calm - N/A Snow Light Snow
6:15 AM 1.4 °F - -2.2 °F 85% 30.07 in 1.0 mi Calm Calm - N/A Snow Light Snow
6:34 AM 1.4 °F - -2.2 °F 85% 30.09 in 1.2 mi Calm Calm - N/A Snow Light Snow
6:55 AM -0.4 °F - -4.0 °F 85% 30.10 in 1.8 mi Calm Calm - N/A Snow Light Snow
7:14 AM 1.4 °F - -0.4 °F 92% 30.11 in 1.5 mi Calm Calm - N/A Snow Light Snow
7:35 AM 3.2 °F - -0.4 °F 85% 30.11 in 1.5 mi Calm Calm - N/A Snow Light Snow
7:55 AM 1.4 °F - -0.4 °F 92% 30.12 in 1.8 mi Calm Calm - N/A Snow Light Snow
8:14 AM 3.2 °F - -0.4 °F 85% 30.12 in 0.8 mi Calm Calm - N/A Snow Light Snow
8:35 AM 1.4 °F - -0.4 °F 92% 30.13 in 1.2 mi Calm Calm - N/A Snow Light Snow
8:54 AM 3.2 °F - 1.4 °F 92% 30.14 in 3.0 mi Calm Calm - N/A Snow Light Snow
9:15 AM 5.0 °F - 1.4 °F 85% 30.14 in 1.2 mi Calm Calm - N/A Snow Light Snow
9:35 AM 6.8 °F - 3.2 °F 85% 30.15 in 4.0 mi Calm Calm - N/A Snow Light Snow
10:15 AM 8.6 °F - 6.8 °F 92% 30.15 in 5.0 mi Calm Calm - N/A Snow Light Snow
10:35 AM 10.4 °F - 6.8 °F 85% 30.15 in 10.0 mi Calm Calm - N/A   Overcast
10:54 AM 10.4 °F - 6.8 °F 85% 30.15 in 10.0 mi Calm Calm - N/A   Mostly Cloudy
11:15 AM 10.4 °F - 8.6 °F 92% 30.16 in 10.0 mi Calm Calm - N/A   Scattered Clouds
11:35 AM 12.2 °F - 10.4 °F 92% 30.17 in 10.0 mi Calm Calm - N/A   Unknown
11:54 AM 15.8 °F 3.4 °F 12.2 °F 86% 30.17 in 10.0 mi WSW 10.4 mph - N/A   Unknown
12:15 PM 15.8 °F 2.7 °F 12.2 °F 86% 30.18 in 10.0 mi WSW 11.5 mph - N/A   Overcast
12:34 PM 17.6 °F 5.7 °F 10.4 °F 73% 30.18 in 10.0 mi SW 10.4 mph - N/A   Overcast
12:55 PM 17.6 °F 6.4 °F 8.6 °F 68% 30.18 in 10.0 mi WSW 9.2 mph - N/A   Overcast
1:15 PM 17.6 °F 6.4 °F 8.6 °F 68% 30.17 in 10.0 mi SW 9.2 mph - N/A   Overcast
1:34 PM 17.6 °F 6.4 °F 8.6 °F 68% 30.17 in 10.0 mi SW 9.2 mph - N/A   Overcast
1:55 PM 17.6 °F 5.7 °F 8.6 °F 68% 30.17 in 10.0 mi SW 10.4 mph - N/A   Overcast
2:14 PM 17.6 °F 5.7 °F 8.6 °F 68% 30.17 in 10.0 mi SW 10.4 mph - N/A   Overcast
2:35 PM 17.6 °F 8.2 °F 8.6 °F 68% 30.16 in 10.0 mi SW 6.9 mph - N/A   Overcast
2:55 PM 19.4 °F 9.5 °F 8.6 °F 63% 30.16 in 10.0 mi WSW 8.1 mph - N/A   Overcast
3:14 PM 19.4 °F 12.8 °F 8.6 °F 63% 30.17 in 10.0 mi West 4.6 mph - N/A   Overcast
3:35 PM 19.4 °F 14.3 °F 10.4 °F 68% 30.16 in 10.0 mi WSW 3.5 mph - N/A   Overcast
3:55 PM 19.4 °F 14.3 °F 10.4 °F 68% 30.17 in 10.0 mi SW 3.5 mph - N/A   Overcast
4:14 PM 19.4 °F 12.8 °F 10.4 °F 68% 30.18 in 10.0 mi WSW 4.6 mph - N/A   Overcast
4:35 PM 19.4 °F 14.3 °F 10.4 °F 68% 30.17 in 10.0 mi SW 3.5 mph - N/A   Overcast
4:54 PM 19.4 °F - 10.4 °F 68% 30.18 in 10.0 mi Calm Calm - N/A   Overcast
5:15 PM 19.4 °F - 8.6 °F 63% 30.18 in 10.0 mi Calm Calm - N/A   Overcast
5:34 PM 19.4 °F - 8.6 °F 63% 30.18 in 10.0 mi Calm Calm - N/A   Overcast
5:55 PM 19.4 °F - 10.4 °F 68% 30.18 in 10.0 mi Calm Calm - N/A   Overcast
6:15 PM 17.6 °F - 10.4 °F 73% 30.19 in 10.0 mi Calm Calm - N/A   Overcast
6:34 PM 17.6 °F - 10.4 °F 73% 30.18 in 10.0 mi Calm Calm - N/A   Mostly Cloudy
6:55 PM 17.6 °F - 12.2 °F 79% 30.18 in 10.0 mi Calm Calm - N/A   Mostly Cloudy
7:15 PM 17.6 °F - 12.2 °F 79% 30.18 in 10.0 mi Calm Calm - N/A   Overcast
7:34 PM 17.6 °F - 12.2 °F 79% 30.19 in 10.0 mi Calm Calm - N/A   Overcast
7:55 PM 17.6 °F 12.3 °F 12.2 °F 79% 30.19 in 10.0 mi SE 3.5 mph - N/A   Overcast
8:14 PM 17.6 °F 12.3 °F 12.2 °F 79% 30.20 in 7.0 mi SSE 3.5 mph - N/A Snow Light Snow
8:34 PM 17.6 °F 10.7 °F 12.2 °F 79% 30.20 in 4.0 mi SSE 4.6 mph - N/A Snow Light Snow
8:55 PM 17.6 °F 12.3 °F 14.0 °F 86% 30.20 in 3.0 mi SE 3.5 mph - N/A Snow Light Snow
9:14 PM 15.8 °F - 14.0 °F 93% 30.19 in 2.0 mi Calm Calm - N/A Snow Light Snow
9:35 PM 17.6 °F 10.7 °F 14.0 °F 86% 30.19 in 1.8 mi East 4.6 mph - N/A Snow Light Snow
9:55 PM 17.6 °F 10.7 °F 14.0 °F 86% 30.20 in 1.5 mi ENE 4.6 mph - N/A Snow Light Snow
10:14 PM 15.8 °F 7.2 °F 14.0 °F 93% 30.20 in 1.2 mi East 5.8 mph - N/A Snow Light Snow
10:35 PM 15.8 °F 7.2 °F 12.2 °F 86% 30.20 in 1.2 mi East 5.8 mph - N/A Snow Snow
10:55 PM 15.8 °F 7.2 °F 12.2 °F 86% 30.19 in 1.2 mi East 5.8 mph - N/A Snow Light Snow
11:14 PM 15.8 °F 10.2 °F 12.2 °F 86% 30.20 in 1.5 mi ENE 3.5 mph - N/A Snow Light Snow
11:35 PM 15.8 °F 8.6 °F 12.2 °F 86% 30.21 in 1.8 mi ENE 4.6 mph - N/A Snow Light Snow
11:54 PM 15.8 °F 8.6 °F 12.2 °F 86% 30.21 in 2.0 mi ENE 4.6 mph - N/A Snow Light Snow